Location: Eschertshofen
(49.3064°N, 11.5756°E)
Time: 15:31:25
(UTC+00:00)

CZ-4C R/B - Pass Details

Date: 18 September 2020
Orbit: 626 x 1376 km, 63.4° (Epoch: 27 October)

Event Time Altitude Azimuth Distance (km) Brightness Sun altitude
Exits shadow 23:02:01 26° 29° (NNE) 1,704 4.1 -39.3°
Drops below altitude 10° 23:04:55 10° 39° (NE) 2,727 5.3 -39.3°
Sets 23:07:50 0° 44° (NE) 3,806 6.1 -39.3°
